{"data":{"norad_id":64459,"epoch":"2026-09-20T23:30:02.171520Z","epoch_age_seconds":90155,"freshness":"FRESH","line1":"1 64459U 25130X   26263.97919180  .00017597  00000+0  53058-3 0  9994","line2":"2 64459  53.1582 257.1166 0001698  86.8681 273.2516 15.34408097 70669","mean_motion":15.34408097,"eccentricity":0.0001698,"inclination_deg":53.1582,"raan_deg":257.1166,"arg_perigee_deg":86.8681,"mean_anomaly_deg":273.2516,"bstar":0.00053058,"rev_number":7066,"period_min":93.84726285109,"perigee_km":461.51760373617,"apogee_km":463.84074490897,"semimajor_km":6840.8161743226,"source":"CELESTRAK","updated_at":"2026-09-21T09:00:35.356423Z"}}